Weather History for PHNY - October, 2012

Change the Weather History Date:

Monday, October 8, 2012

  Actual Average Record
Temperature  
Mean Temperature 73 °F -  
Max Temperature 81 °F 82 °F 87 °F (2001)
Min Temperature 65 °F 66 °F 59 °F (1949)
Cooling Degree Days 8    
Growing Degree Days 23 (Base 50)    
Moisture  
Dew Point 66 °F    
Average Humidity 84    
Maximum Humidity 100    
Minimum Humidity 58    
Precipitation  
Precipitation 0.00 in - - ()
Sea Level Pressure  
Sea Level Pressure 29.97 in    
Wind  
Wind Speed 2 mph (SSE)    
Max Wind Speed 10 mph    
Max Gust Speed -    
Visibility 7 miles    
Events      
Averages and records for this station are not official NWS values.
T = Trace of Precipitation, MM = Missing Value Source: NWS Daily Summary

Daily Weather History Graph

Daily Weather History Graph

Search for Another Location

Airport or City:

Trip Planner

Search our weather history database for the weather conditions in past years. The results will help you decide how hot, cold, wet, or windy it might be!

Date:

Astronomy

Oct. 08, 2012 Rise Set
Actual Time 6:21 AM HST 6:08 PM HST
Civil Twilight 5:58 AM HST 6:31 PM HST
Nautical Twilight 5:33 AM HST 6:56 PM HST
Astronomical Twilight 5:07 AM HST 7:22 PM HST
Moon No Moon Rise 1:20 PM HST (10/8)
Length of Visible Light 12h 32m
Length of Day
11h 47m
Last Quarter, 44% of the Moon is Illuminated
Oct 8
Last Quarter
Oct 15
New
Oct 21
First Quarter
Oct 29
Full
Nov 6
Last Quarter

Hourly Weather History & Observations

Time (HST) Temp. Heat Index Dew Point Humidity Pressure Visibility Wind Dir Wind Speed Gust Speed Precip Events Conditions
12:36 AM 68.0 °F - 66.2 °F 94% 29.99 in 6.0 mi Calm Calm - N/A   Mostly Cloudy
12:56 AM 68.9 °F - 66.9 °F 93% 29.93 in 6.0 mi Calm Calm - N/A   Mostly Cloudy
1:47 AM 68.0 °F - 66.2 °F 94% 29.98 in 5.0 mi Calm Calm - N/A   Scattered Clouds
1:56 AM 68.0 °F - 66.9 °F 96% 29.92 in 5.0 mi Calm Calm - N/A   Partly Cloudy
2:56 AM 68.0 °F - 66.9 °F 96% 29.91 in 3.0 mi Calm Calm - N/A   Scattered Clouds
3:29 AM 66.2 °F - 66.2 °F 100% 29.96 in 2.0 mi Calm Calm - N/A   Partly Cloudy
3:37 AM 66.2 °F - 66.2 °F 100% 29.97 in 1.5 mi Calm Calm - N/A   Mostly Cloudy
3:39 AM 66.2 °F - 64.4 °F 94% 29.96 in 1.0 mi Calm Calm - N/A   Clear
3:49 AM 66.2 °F - 66.2 °F 100% 29.96 in 1.5 mi East 3.5 mph - N/A   Clear
3:56 AM 65.8 °F - 65.8 °F 100% 29.91 in 4.0 mi Calm Calm - N/A   Clear
4:07 AM 66.2 °F - 66.2 °F 100% 29.96 in 4.0 mi Calm Calm - N/A   Partly Cloudy
4:56 AM 68.0 °F - 66.9 °F 96% 29.91 in 4.0 mi Calm Calm - N/A   Clear
5:06 AM 66.2 °F - 66.2 °F 100% 29.97 in 2.5 mi East 3.5 mph - N/A   Partly Cloudy
5:17 AM 66.2 °F - 64.4 °F 94% 29.97 in 1.8 mi Calm Calm - N/A   Clear
5:24 AM 66.2 °F - 64.4 °F 94% 29.97 in 2.5 mi Calm Calm - N/A   Partly Cloudy
5:31 AM 66.2 °F - 66.2 °F 100% 29.97 in 5.0 mi Calm Calm - N/A   Partly Cloudy
5:56 AM 66.9 °F - 65.8 °F 96% 29.92 in 9.0 mi Calm Calm - N/A   Partly Cloudy
6:56 AM 68.0 °F - 66.9 °F 96% 29.94 in 6.0 mi Calm Calm - N/A   Partly Cloudy
7:56 AM 72.0 °F - 70.9 °F 96% 29.95 in 10.0 mi Calm Calm - N/A   Clear
8:56 AM 74.8 °F - 68.0 °F 79% 29.96 in 10.0 mi South 4.6 mph - N/A   Scattered Clouds
9:03 AM 75.2 °F - 68.0 °F 78% 30.02 in 10.0 mi South 8.1 mph - N/A   Mostly Cloudy
9:34 AM 77.0 °F - 68.0 °F 74% 30.03 in 10.0 mi South 8.1 mph - N/A   Scattered Clouds
9:43 AM 77.0 °F - 68.0 °F 74% 30.03 in 10.0 mi South 8.1 mph - N/A   Mostly Cloudy
9:56 AM 77.0 °F - 68.0 °F 74% 29.97 in 10.0 mi South 6.9 mph - N/A   Mostly Cloudy
10:56 AM 78.8 °F - 68.0 °F 69% 30.03 in 10.0 mi SSE 9.2 mph - N/A   Mostly Cloudy
11:23 AM 80.6 °F 82.7 °F 66.2 °F 61% 30.03 in 10.0 mi South 8.1 mph - N/A   Scattered Clouds
11:32 AM 80.6 °F 82.7 °F 66.2 °F 61% 30.02 in 10.0 mi South 10.4 mph - N/A   Mostly Cloudy
11:56 AM 77.9 °F - 66.9 °F 69% 29.96 in 10.0 mi South 9.2 mph - N/A   Mostly Cloudy
12:39 PM 77.0 °F - 66.2 °F 69% 30.01 in 10.0 mi South 8.1 mph - N/A   Mostly Cloudy
12:56 PM 77.9 °F - 66.9 °F 69% 29.94 in 10.0 mi South 8.1 mph - N/A   Mostly Cloudy
1:56 PM 80.6 °F 82.7 °F 66.2 °F 61% 29.99 in 10.0 mi South 8.1 mph - N/A   Scattered Clouds
2:56 PM 81.0 °F 82.7 °F 64.9 °F 58% 29.92 in 10.0 mi South 9.2 mph - N/A   Scattered Clouds
3:03 PM 80.6 °F 82.7 °F 66.2 °F 61% 29.98 in 10.0 mi South 3.5 mph - N/A   Mostly Cloudy
3:47 PM 78.8 °F - 66.2 °F 65% 29.98 in 10.0 mi SSE 6.9 mph - N/A   Partly Cloudy
3:56 PM 79.0 °F - 66.9 °F 66% 29.93 in 10.0 mi SSE 6.9 mph - N/A   Partly Cloudy
4:56 PM 77.9 °F - 65.8 °F 66% 29.94 in 10.0 mi SSE 8.1 mph - N/A   Clear
5:56 PM 73.9 °F - 66.9 °F 79% 29.96 in 10.0 mi South 3.5 mph - N/A   Clear
6:56 PM 70.9 °F - 65.8 °F 84% 29.97 in 10.0 mi Calm Calm - N/A   Clear
7:56 PM 68.9 °F - 64.9 °F 87% 29.99 in 10.0 mi Calm Calm - N/A   Clear
8:56 PM 68.0 °F - 64.9 °F 90% 30.00 in 10.0 mi East 6.9 mph - N/A   Clear
9:56 PM 68.0 °F - 64.9 °F 90% 30.01 in 10.0 mi Calm Calm - N/A   Clear
10:56 PM 66.9 °F - 64.9 °F 93% 30.00 in 10.0 mi Calm Calm - N/A   Clear
11:56 PM 66.9 °F - 64.9 °F 93% 29.99 in 10.0 mi Calm Calm - N/A   Clear